Regional Weather Roundup
Issued by NWS State College, PA

Home | Current Version | Previous Version | Graphics & Text | Print | Product List | Glossary On
Versions: 1 2 3 4 5 6 7 8 9 10 11 12 13 14 15 16 17 18 19 20 21 22 23 24 25 26 27 28 29 30 31 32 33 34 35 36 37 38 39 40 41 42 43 44 45 46 47 48 49 50
000
ASUS41 KCTP 280110
RWRCTP

REGIONAL WEATHER ROUNDUP
NATIONAL WEATHER SERVICE STATE COLLEGE PA
900 PM EDT WED AUG 27 2014

Note: "fair" indicates few or no clouds below 12,000 feet with no
significant weather and/or obstructions to visibility.

* = STATION THAT DOES NOT REPORT PRECIPITATION /E.G. RAIN...SNOW...ETC/
    THUNDER OR FOG.

PAZ002>004-007>009-013>016-020>023-029>032-280200-
WESTERN PENNSYLVANIA

CITY           SKY/WX    TMP DP  RH WIND       PRES   REMARKS
ERIE           PTCLDY    71  57  61 N9G17     30.07R
MEADVILLE      PTCLDY    65  58  78 NW5       30.08R
FRANKLIN*      PTCLDY    64  57  77 NW3       30.09R
NEW CASTLE     FAIR      69  62  78 CALM      30.08R
BEAVER COUNTY  MOCLDY    70  63  78 N7        30.06R
BUTLER*        PTCLDY    70  63  78 NW5       30.06S
PITTSBURGH INT MOCLDY    74  65  73 N10       30.04R
PITTSBURGH     PTCLDY    74  66  76 N8        30.02R
INDIANA*       CLOUDY    75  68  78 N7        30.07R
LATROBE        CLEAR     70  70 100 CALM      30.02S FOG
WASHINGTON CO* CLOUDY    72  70  94 CALM      30.05R
$$

PAZ004>006-010>012-017>019-024>028-033>037-041-042-045-046-049>053-280200-
CENTRAL PENNSYLVANIA

CITY           SKY/WX    TMP DP  RH WIND       PRES   REMARKS
BRADFORD       CLEAR     63  58  83 NW6       30.07R
DUBOIS         CLEAR     68  62  81 NW8       30.04R
CLEARFIELD     CLEAR     72  65  78 NW6       30.03R
JOHNSTOWN      MOCLDY    69  65  86 NW9       30.06R
ALTOONA        MOCLDY    69  67  93 CALM      30.02R
STATE COLLEGE  CLEAR     77  66  69 NW7       29.98R
WILLIAMSPORT   MOCLDY    78  68  71 S3        29.93R
SELINSGROVE    PTCLDY    72  69  90 W3        29.93R
FT INDIANTOWN  PTCLDY    79  74  83 NE5       29.92R THUNDER
CAPITAL CITY   PTCLDY    79  71  76 W5        29.91R
HARRISBURG     MOCLDY    78  72  81 W5        29.90S
YORK           CLEAR     73  69  87 CALM      29.93R
$$

PAZ038>040-043-044-047-048-054-055-060>062-067>071-280200-
EASTERN PENNSYLVANIA

CITY           SKY/WX    TMP DP  RH WIND       PRES   REMARKS
SCRANTON       CLOUDY    77  69  76 N8        29.96R
MOUNT POCONO   CLOUDY    72  68  87 N5        29.99R
ALLENTOWN      CLOUDY    81  69  67 CALM      29.90R
QUAKERTOWN*    MOCLDY    77  70  78 CALM      29.92R
READING        PTCLDY    81  69  67 NE3       29.89S
LANCASTER      CLEAR     77  69  76 W5        29.91S
COATESVILLE    CLEAR     77  70  78 SW3       29.93S
POTTSTOWN      PTCLDY    78  68  71 CALM      29.91S
BLUE BELL      PTCLDY    77  70  78 CALM      29.89S
DOYLESTOWN     PTCLDY    77  68  73 CALM      29.89F
WILLOW GROVE   NOT AVBL
NORTH PHILA    CLEAR     83  64  52 SW5       29.90R
PHILADELPHIA   PTCLDY    82  66  58 SW10      29.90R
$$


USA.gov is the U.S. government's official web portal to all federal, state and local government web resources and services.